OSCAR 7 (AO-7) 1 07530U 74089B 26073.90267001 -.00000016 00000+0 19098-3 0 9993 2 07530 101.9966 86.1487 0011943 312.0070 113.5034 12.53696509348709 PHASE 3B (AO-10) 1 14129U 83058B 26072.70379219 .00000107 00000+0 00000+0 0 9992 2 14129 25.9213 235.5807 6045284 89.2129 335.2286 2.05870209293524 UOSAT 2 (UO-11) 1 14781U 84021B 26073.90994790 .00001858 00000+0 19576-3 0 9993 2 14781 97.7954 40.6105 0008739 128.4225 231.7779 14.90526997243086 LUSAT (LO-19) 1 20442U 90005G 26073.78400388 .00000191 00000+0 84803-4 0 9999 2 20442 98.8932 92.9553 0012531 120.6273 239.6149 14.34090436888865 EYESAT A (AO-27) 1 22825U 93061C 26073.67171341 .00000127 00000+0 65347-4 0 9994 2 22825 98.6971 141.0853 0008713 25.2992 334.8616 14.30914940693487 ITAMSAT (IO-26) 1 22826U 93061D 26073.67919742 .00000146 00000+0 72055-4 0 9995 2 22826 98.6920 141.0008 0008910 8.8775 351.2564 14.31339177693792 RADIO ROSTO (RS15) 1 23439U 94085A 26073.75080517 -.00000043 00000+0 -20323-4 0 9990 2 23439 64.8133 95.9468 0152851 21.0791 339.6344 11.27583888285256 JAS-2 (FO-29) 1 24278U 96046B 26073.60013971 .00000022 00000+0 60160-4 0 9993 2 24278 98.5375 295.3553 0349615 342.0303 16.8727 13.53269068460371 TECHSAT 1B (GO-32) 1 25397U 98043D 26073.93813911 .00000102 00000+0 64460-4 0 9999 2 25397 99.0030 64.3394 0002195 111.1627 248.9785 14.24407775437912 ISS (ZARYA) 1 25544U 98067A 26073.80519411 .00010373 00000+0 20105-3 0 9991 2 25544 51.6329 47.0659 0006371 190.9724 169.1126 15.48281436557126 PCSAT (NO-44) 1 26931U 01043C 26073.58737432 .00000170 00000+0 94420-4 0 9996 2 26931 67.0498 128.9462 0006995 265.0362 94.9941 14.31914913276908 SAUDISAT 1C (SO-50) 1 27607U 02058C 26073.27104551 .00002083 00000+0 26271-3 0 9993 2 27607 64.5526 62.6028 0075307 279.8659 79.3951 14.82804742250386 CUTE-1 (CO-55) 1 27844U 03031E 26073.90291045 .00000398 00000+0 19111-3 0 9995 2 27844 98.6776 83.6370 0010761 99.0298 261.2099 14.24271034178259 CUBESAT XI-IV (CO-57) 1 27848U 03031J 26073.56320221 .00000349 00000+0 17224-3 0 9999 2 27848 98.6807 83.0901 0010521 116.0304 244.1959 14.23565240177915 MOZHAETS 4 (RS22) 1 27939U 03042A 26073.96702708 .00002004 00000+0 31810-3 0 9997 2 27939 98.3445 255.6750 0010752 202.2227 306.9819 14.73272902201676 CUBESAT XI-V 1 28895U 05043F 26073.40511845 .00002210 00000+0 35702-3 0 9994 2 28895 98.2838 227.1185 0014964 143.2981 216.9253 14.72342957 87805 CUTE-1.7+APD II (CO-65) 1 32785U 08021C 26073.88776943 .00008698 00000+0 56187-3 0 9996 2 32785 97.8206 53.4525 0009024 1.3773 358.7478 15.08455682970977 SEEDS II (CO-66) 1 32791U 08021J 26073.89413704 .00024970 00000+0 87844-3 0 9992 2 32791 97.7514 67.5419 0000649 329.5812 30.5389 15.29334206972863 YUBILEINY (RS30) 1 32953U 08025A 26073.93895712 .00000089 00000+0 56666-3 0 9997 2 32953 82.5006 54.0562 0019715 153.8663 206.3416 12.43176404807988 KKS-1 (KISEKI) 1 33499U 09002H 26073.86319245 .00002113 00000+0 26768-3 0 9993 2 33499 98.1183 354.8369 0006665 230.3696 129.6929 14.82852034922211 SWISSCUBE 1 35932U 09051B 26073.95170288 .00001364 00000+0 28021-3 0 9994 2 35932 98.4097 340.1877 0007422 137.4075 222.7702 14.62275636875388 BEESAT-1 1 35933U 09051C 26073.77613598 .00001190 00000+0 24964-3 0 9990 2 35933 98.4025 339.8391 0005655 148.3380 211.8162 14.61546707875391 ITUPSAT1 1 35935U 09051E 26073.68477454 .00001075 00000+0 23266-3 0 9997 2 35935 98.4111 339.0360 0007602 162.6580 197.4880 14.60280145874948 XIWANG-1 (HOPE-1) 1 36122U 09072B 26073.92893966 .00000190 00000+0 61261-3 0 9990 2 36122 100.3916 29.3111 0008131 88.3987 271.8057 13.16436527780608 O/OREOS (USA 219) 1 37224U 10062C 26073.95689729 .00002791 00000+0 27150-3 0 9996 2 37224 71.9705 293.7197 0016717 247.8216 112.1181 14.93310617102574 JUGNU 1 37839U 11058B 26073.57141022 .00000513 00000+0 12835-3 0 9995 2 37839 19.9595 163.2385 0018726 111.0167 277.7923 14.13743579745624 SRMSAT 1 37841U 11058D 26073.93795175 .00000465 00000+0 10856-3 0 9999 2 37841 19.9715 269.9394 0011718 247.0003 267.6131 14.11549952744487 STRAND-1 1 39090U 13009E 26073.43811536 .00000416 00000+0 15431-3 0 9990 2 39090 98.3892 256.0118 0009273 148.2913 211.8834 14.37099499683452 ZACUBE-1 (TSHEPISOSAT) 1 39417U 13066B 26073.86543069 .00005958 00000+0 47004-3 0 9993 2 39417 97.8157 35.7145 0043138 202.7590 157.1722 15.00383064666588 GOMX-1 1 39430U 13066Q 26073.93299681 .00002309 00000+0 35296-3 0 9991 2 39430 97.6571 280.3111 0129920 20.7697 339.8721 14.69120759656077 CUBEBUG-2 (LO-74) 1 39440U 13066AA 26073.79119560 .00007595 00000+0 71207-3 0 9997 2 39440 97.8811 22.4718 0057975 342.0979 17.8197 14.93025936662905 FUNCUBE-1 (AO-73) 1 39444U 13066AE 26073.88321280 .00009954 00000+0 64012-3 0 9992 2 39444 97.8183 43.5100 0037854 161.5965 198.6642 15.08011515665443 UWE-3 1 39446U 13066AG 26073.81235072 .00006951 00000+0 60700-3 0 9994 2 39446 97.8594 29.3635 0047882 274.4860 85.0892 14.96245702663465 UNISAT-6 1 40012U 14033C 26073.91976005 .00003921 00000+0 42840-3 0 9998 2 40012 97.7730 228.3944 0045718 20.8398 339.4669 14.87679739632146 DUCHIFAT-1 1 40021U 14033M 26073.67032461 .00083504 00000+0 14522-2 0 9990 2 40021 98.0633 120.6867 0005627 70.3630 289.8226 15.50487868641041 QB50P1 1 40025U 14033R 26073.92236118 .00012053 00000+0 61890-3 0 9999 2 40025 98.1006 78.5591 0008971 175.8999 184.2308 15.16643252638733 LILACSAT-2 1 40908U 15049K 26074.00894259 .00021870 00000+0 41589-3 0 9993 2 40908 97.4803 107.4190 0006086 221.8055 138.2730 15.48245624581165 FOX-1A (AO-85) 1 40967U 15058D 26073.69211596 .00004632 00000+0 42003-3 0 9998 2 40967 64.7751 212.5104 0128748 93.9133 267.6709 14.90402302 99483 CAS-2T & KS-1Q 1 41847U 16066G 26073.69434818 .00001522 00000+0 22090-3 0 9999 2 41847 98.3878 150.4891 0343461 56.3578 306.9882 14.44486616491152 RADFXSAT (FOX-1B) 1 43017U 17073E 26073.62831316 .00013646 00000+0 61706-3 0 9993 2 43017 97.4861 302.8209 0153790 295.0415 63.4915 15.10996825451102 DIWATA-2B 1 43678U 18084H 26073.92553885 .00005126 00000+0 41671-3 0 9997 2 43678 98.1041 266.1775 0012349 110.9977 249.2568 14.99995111402089 ES'HAIL 2 1 43700U 18090A 26073.85883630 .00000143 00000+0 00000+0 0 9997 2 43700 0.0109 122.2198 0001083 229.0070 156.2245 1.00272130 26732 FOX-1CLIFF (AO-95) 1 43770U 18099N 26073.69732300 .00017443 00000+0 70953-3 0 9991 2 43770 97.4508 134.3919 0007872 327.6399 32.4355 15.24562838398814 ITASAT 1 43786U 18099AE 26073.85116202 .00009186 00000+0 45712-3 0 9993 2 43786 97.4161 127.2750 0011731 327.3185 32.7322 15.17769701398591 JY1SAT (JO-97) 1 43803U 18099AX 26073.91706390 .00022791 00000+0 77318-3 0 9997 2 43803 97.4249 136.5939 0005016 233.9702 126.1074 15.30521716399192 UWE-4 1 43880U 18111E 26073.74271368 .00044278 00000+0 10930-2 0 9990 2 43880 97.5849 358.2146 0006614 318.6693 41.4051 15.40366914396214 TIANYAN 01 1 44881U 19093C 26073.93666162 .00000477 00000+0 60042-4 0 9997 2 44881 97.7603 148.4501 0014559 41.8589 318.3738 14.86351266337414 RS-44 & BREEZE-KM R/B 1 44909U 19096E 26073.87613033 .00000021 00000+0 39209-4 0 9999 2 44909 82.5212 42.3670 0217706 5.2108 355.1186 12.79747577290285 SALSAT 1 46495U 20068K 26073.91115547 .00011282 00000+0 41164-3 0 9997 2 46495 97.8858 71.3452 0008046 274.1510 85.8809 15.28301739300959 XW-3 (CAS-9) 1 50466U 21131B 26073.98851888 .00000474 00000+0 16032-3 0 9991 2 50466 98.4952 166.9129 0004657 35.9584 324.1917 14.41257937221544 GREENCUBE (IO-117) 1 53109U 22080E 26073.71299213 -.00000003 00000+0 00000+0 0 9994 2 53109 70.1599 331.1096 0008990 310.7848 49.2032 6.42583118 85990 UMKA 1 (RS40S) 1 57172U 23091G 26073.90575523 .00009085 00000+0 42756-3 0 9999 2 57172 97.5173 132.9909 0014645 89.9008 270.3905 15.19683674149687 CUBESX-HSE 3 (RS42S) 1 57178U 23091N 26073.93128828 .00018438 00000+0 65946-3 0 9998 2 57178 97.5203 138.4550 0012451 70.8615 289.3971 15.28780181150019 MONITOR-3 (RS58S) 1 57180U 23091Q 26073.95916236 .00014606 00000+0 57087-3 0 9991 2 57180 97.5198 136.8035 0013526 75.5712 284.7026 15.25884838149917 MONITOR-4 (RS57S) 1 57182U 23091S 26073.94399053 .00015198 00000+0 59233-3 0 9996 2 57182 97.5191 136.7535 0013495 76.0046 284.2691 15.25971595149917 MONITOR-2 (RS39S) 1 57184U 23091U 26073.94677831 .00006799 00000+0 33711-3 0 9991 2 57184 97.5198 132.8487 0013012 82.8382 277.4330 15.17985809149651 SVYATOBOR 1 (RS60S) 1 57187U 23091X 26073.94982117 .00012373 00000+0 49854-3 0 9990 2 57187 97.5203 137.3151 0010996 69.2399 291.0016 15.24937269149944 VIZARD-METEO (RS38S) 1 57189U 23091Z 26073.98563753 .00021402 00000+0 67271-3 0 9993 2 57189 97.5193 141.7616 0008444 56.4812 303.7236 15.32970560150242 NANOZOND 1 (RS49S) 1 57190U 23091AA 26074.26912972 .00233163 00000+0 13847-2 0 9996 2 57190 97.5058 154.9745 0002282 289.4604 70.6415 15.77351754151151 POLYTECH-UNIVERSE 3 (R*) 1 57191U 23091AB 26073.98614712 .00007562 00000+0 37190-3 0 9996 2 57191 97.5171 132.3945 0017387 97.4516 262.8694 15.18171691149652 UTMN 2 (RS27S) 1 57203U 23091AP 26073.93656087 .00018515 00000+0 64527-3 0 9990 2 57203 97.5194 139.9778 0009403 60.7366 299.4813 15.29658731150124 KUZGTU 1 (RS47S) 1 57217U 23091AV 26073.97649954 .00016830 00000+0 62356-3 0 9990 2 57217 97.5178 137.6075 0012710 73.6015 286.6620 15.27637720149984 SONATE-2 1 59112U 24043Q 26073.88330624 .00046860 00000+0 78172-3 0 9994 2 59112 97.5392 219.0643 0008026 185.4459 174.6707 15.51801243113234 MESAT1 1 60209U 24125G 26073.85209974 .00056603 00000+0 86591-3 0 9994 2 60209 97.2453 289.7538 0011586 200.9026 159.1756 15.54126021 94870 OOV-CUBE (TUBSAT-30) 1 60240U 24128F 26073.82131753 .00003896 00000+0 30018-3 0 9997 2 60240 61.9949 194.5051 0054090 113.3874 247.2919 15.02295176 91936 COLIBRI-S (RS67S) 1 61746U 24199M 26073.93551327 .00027957 00000+0 61904-3 0 9994 2 61746 97.3157 307.1239 0007483 261.4596 98.5804 15.43726001122859 HORS 3 (RS81S) 1 61753U 24199U 26073.88048071 .00043726 00000+0 81267-3 0 9999 2 61753 97.3125 308.2119 0005297 264.4223 95.6424 15.48767458122933 HORS 4 (RS82S) 1 61754U 24199V 26073.93875754 .00051814 00000+0 86849-3 0 9990 2 61754 97.3097 308.9889 0004929 259.7810 100.2886 15.51665960122993 HORIZON (RS59S) 1 61757U 24199Y 26073.90578234 .00177594 00000+0 13448-2 0 9991 2 61757 97.3065 312.9478 0003616 215.3516 144.7508 15.71850349123245 ARCTICSAT 1 (RS74S) 1 61762U 24199AD 26073.93429531 .00128299 00000+0 11957-2 0 9996 2 61762 97.3082 312.4631 0003860 217.4319 142.6673 15.66936313123218 SIT-2086 1 61764U 24199AF 26073.89402105 .00031642 00000+0 60654-3 0 9995 2 61764 97.3120 308.9500 0005958 249.8528 110.2082 15.47940707119827 HYPERVIEW 1G (RS66S) 1 61772U 24199AP 26073.89359684 .00083189 00000+0 10702-2 0 9998 2 61772 97.3084 310.1037 0006303 258.3026 101.7523 15.58771982119912 ALTAIR (RS65S) 1 61779U 24199AW 26073.91654650 .00013349 00000+0 39314-3 0 9991 2 61779 97.3182 303.9363 0011749 287.2531 72.7426 15.35101908122645 ASRTU-1 (AO-123) 1 61781U 24199AY 26073.89932923 .00011998 00000+0 36403-3 0 9997 2 61781 97.3154 303.4370 0012492 289.4115 70.5778 15.34179464119461 TUSUR GO (RS78S) 1 61782U 24199AZ 26073.91643965 .00201488 00000+0 14714-2 0 9991 2 61782 97.3016 311.9715 0003760 237.3242 122.7659 15.72642773120041 SAMSAT-IONOSPHERE (RS7*) 1 61784U 24199BB 26073.90067350 .00049197 00000+0 87403-3 0 9993 2 61784 97.3118 308.0335 0008405 269.7095 90.3193 15.50007046122923 RTU MIREA 1 (RS51S) 1 61785U 24199BC 26073.89202766 .00054592 00000+0 90306-3 0 9995 2 61785 97.3118 308.4850 0008318 265.0122 95.0181 15.51998993119806 TEVEL2-4 1 63213U 25052D 26073.66132852 .00028971 00000+0 96227-3 0 9995 2 63213 97.4017 330.0791 0004765 86.0226 274.1560 15.31157112 55635 TEVEL2-5 1 63214U 25052E 26073.67267855 .00027876 00000+0 92975-3 0 9998 2 63214 97.4016 330.0626 0004673 84.6536 275.5238 15.31031772 55638 TEVEL2-6 1 63215U 25052F 26073.94407311 .00024317 00000+0 81242-3 0 9994 2 63215 97.4017 330.3185 0004844 87.2148 272.9647 15.31003930 55675 TEVEL2-1 1 63217U 25052H 26073.94376663 .00023310 00000+0 78928-3 0 9990 2 63217 97.3991 330.0449 0004952 95.3249 264.8557 15.30577874 55660 TEVEL2-3 1 63218U 25052J 26073.67971878 .00027054 00000+0 91446-3 0 9999 2 63218 97.3992 329.7941 0004941 95.8631 264.3173 15.30603209 55629 TEVEL2-2 1 63219U 25052K 26073.94441816 .00023622 00000+0 79972-3 0 9991 2 63219 97.3989 330.0466 0004877 95.3049 264.8749 15.30581047 55662 TEVEL2-9 1 63237U 25052AD 26073.93872952 .00021907 00000+0 78191-3 0 9995 2 63237 97.4057 329.6012 0008323 110.2230 249.9906 15.28850890 55615 TEVEL2-7 1 63238U 25052AE 26073.70194411 .00024326 00000+0 87374-3 0 9999 2 63238 97.4060 329.3165 0008509 110.3973 249.8182 15.28621327 55578 TEVEL2-8 1 63239U 25052AF 26073.97088264 .00022602 00000+0 81252-3 0 9991 2 63239 97.4062 329.5644 0008440 110.2619 249.9529 15.28609226 55610 HADES-ICM 1 63492U 25052BN 26073.70850445 .00197551 00000+0 25270-2 0 9994 2 63492 97.3932 334.3430 0009151 101.6507 258.5776 15.58505243 55924 INNOSAT 16 (RS92S7) 1 64878U 25155C 26073.90290511 .00008726 00000+0 35953-3 0 9996 2 64878 97.4465 41.4660 0011612 148.3751 211.8187 15.24272548 66304 GEOSCAN 6 (RS92S6) 1 64879U 25155D 26073.95388878 .00014502 00000+0 53040-3 0 9992 2 64879 97.4463 42.3309 0009393 138.5127 221.6827 15.28129717 66363 GEOSCAN 1 (RS92S1) 1 64880U 25155E 26073.92273630 .00016819 00000+0 60653-3 0 9991 2 64880 97.4462 42.3767 0009295 138.7391 221.4553 15.28560961 66362 239ALFEROV (RS61S) 1 64881U 25155F 26073.94315626 .00020347 00000+0 69855-3 0 9990 2 64881 97.4465 42.6838 0009040 136.9582 223.2367 15.30130206 66381 GEOSCAN 2 (RS92S2) 1 64890U 25155Q 26073.93406191 .00015706 00000+0 56155-3 0 9999 2 64890 97.4460 42.5012 0009018 126.8996 233.3071 15.28861561 66376 GEOSCAN 5 (RS92S5) 1 64891U 25155R 26073.95217711 .00019589 00000+0 66604-3 0 9993 2 64891 97.4457 42.7932 0007748 140.0555 220.1257 15.30462862 66399 GEOSCAN 4 (RS92S4) 1 64892U 25155S 26073.94420130 .00020244 00000+0 68598-3 0 9998 2 64892 97.4460 42.8108 0007745 140.4435 219.7373 15.30566807 66395 GEOSCAN 3 (RS92S3) 1 64893U 25155T 26073.91754029 .00024503 00000+0 79494-3 0 9992 2 64893 97.4454 42.9849 0007480 140.3683 219.8106 15.31934437 66408 INNOSAT 3 (RS92S0) 1 64894U 25155U 26073.93312119 .00046073 00000+0 12627-2 0 9995 2 64894 97.4422 43.6887 0007317 134.8376 225.3464 15.37133467 66454